Regional Weather Roundup
Issued by NWS Midland/Odessa, TX

Home | Current Version | Previous Version | Text Only | Print | Product List | Glossary On
Versions: 1 2 3 4 5 6 7 8 9 10 11 12 13 14 15 16 17 18 19 20 21 22 23 24 25 26 27 28 29 30 31 32 33 34 35 36 37 38 39 40 41 42 43 44 45 46 47 48 49 50
000
ASUS44 KMAF 210210
RWRMAF
MIDLAND AREA WEATHER ROUNDUP
NATIONAL WEATHER SERVICE MIDLAND TX
900 PM CDT FRI APR 20 2018

...IN SOUTHWEST TEXAS AND SOUTHEAST NEW MEXICO...

CITY           SKY/WX    TMP DP  RH WIND       PRES   REMARKS
ALPINE         PTCLDY    70  51  49 S7        29.94R
ANDREWS        CLOUDY    63  53  69 S16G22    29.89R
ARTESIA        CLEAR     68   1   7 W12       29.85R
BIG SPRING     CLOUDY    63  52  67 SE25G32   29.89R
CARLSBAD       CLEAR     71   3   7 W18       29.83R
DRYDEN           N/A     67  58  72 SE21G32   29.83F
FORT STOCKTON  TSTM      63  57  81 SE22      29.86R
GUAD PASS      CLEAR     62  -5   6 W36G48    29.94R
HOBBS          PTCLDY    66  52  59 S17       29.87R
LAMESA         CLOUDY    63  52  67 S22G44    29.91R
MARFA            N/A     71  12  10 VRB6      29.93R
MIDLAND AIRPK    N/A     66  55  67 S23G35    29.88R
MIDLAND INTL   CLOUDY    65  55  70 S22       29.88R
ODESSA         CLOUDY    64  54  69 S30G36    29.88R
PECOS          CLEAR     79  11   7 W20       29.82R
PRESIDIO       FAIR      89  14   6 NW18G26   29.75R
SEMINOLE       MOCLDY    64  52  64 S16G22    29.90R
SNYDER         CLOUDY    64  47  52 SE20G29   29.91R
WINK           PTCLDY    67  53  61 SE18G25   29.83R
$$
...OTHER STATIONS IN TEXAS...

CITY           SKY/WX    TMP DP  RH WIND       PRES   REMARKS
ABILENE        CLOUDY    64  46  52 SE23G39   29.95R
AMARILLO       LGT RAIN  49  47  93 E16       29.95F
AUSTIN         CLOUDY    62  47  57 E9        30.06S
BROWNSVILLE    FAIR      73  65  75 E10       30.01S
CORPUS CHRISTI CLOUDY    70  65  84 SE20      30.01S
DALLAS FTW     PTCLDY    63  43  48 SE14      30.05R
DEL RIO        CLOUDY    67  57  70 SE16G26   29.92R
EL PASO        CLEAR     69   7   9 NW20      29.90R
HOUSTON INT    MOCLDY    61  50  67 SE9       30.12S
LUBBOCK        CLOUDY    64  50  60 S26G35    29.89R
SAN ANGELO     CLOUDY    63  52  67 SE21G28   29.94R
SAN ANTONIO    CLOUDY    64  54  69 SE15      30.04R
WACO           CLEAR     62  44  51 SE14      30.07S
WICHITA FALLS  LGT RAIN  60  30  32 E12       30.10F
$$
...OTHER LOCATIONS IN NEW MEXICO...

CITY           SKY/WX    TMP DP  RH WIND       PRES   REMARKS
ALAMOGORDO     CLEAR     63   5  10 W12       29.93R
ALBUQUERQUE    MOCLDY    56  19  23 W18       29.97R
CANNON AFB     PTCLDY    58  48  69 NW8       29.89R
CLOVIS         PTCLDY    59  53  80 S7        29.89R HAZE
HOLLOMAN AFB   CLEAR     65   4   9 SW14G22   29.93R
ROSWELL        CLEAR     68  -2   6 W14       29.83R
RUIDOSO        CLEAR     50  -4  10 W7        30.00R
SANTA FE       MOCLDY    48  15  26 W13       29.98R
TRUTH OR CONSE CLEAR     63  11  13 W13G24    29.93R
TUCUMCARI      PTCLDY    50  46  86 N15       29.89R
$$




USA.gov is the U.S. government's official web portal to all federal, state and local government web resources and services.